Debrecen, Hungary

8:34 AM CET on February 22, 2018 (GMT +0100)
Debrecen

Weather History for LHDC - November, 2012

Change the Weather History Date:

Monday, November 19, 2012

  Actual Average Record
Temperature  
Mean Temperature 44 °F -  
Max Temperature 54 °F 41 °F - ()
Min Temperature 34 °F 30 °F - ()
Degree Days  
Heating Degree Days 20    
Moisture  
Dew Point 38 °F    
Average Humidity 78    
Maximum Humidity 100    
Minimum Humidity 47    
Precipitation  
Precipitation 0.00 in 0.06 in - ()
Sea Level Pressure  
Sea Level Pressure 30.13 in    
Wind  
Wind Speed 4 mph ()    
Max Wind Speed 9 mph    
Max Gust Speed -    
Visibility 3.0 miles    
Events Fog    
T = Trace of Precipitation, MM = Missing Value Source: Averaged Metar Reports

Daily Weather History Graph

Daily Weather History Graph

Search for Another Location

Airport or City:

Trip Planner

Search our weather history database for the weather conditions in past years. The results will help you decide how hot, cold, wet, or windy it might be!

Date:

Astronomy

Nov. 19, 2012 Rise Set
Actual Time 6:44 AM CET 3:53 PM CET
Civil Twilight 6:10 AM CET 4:27 PM CET
Nautical Twilight 5:32 AM CET 5:04 PM CET
Astronomical Twilight 4:56 AM CET 5:41 PM CET
Moon 11:28 AM CET (11/19) 10:09 PM CET (11/19)
Length of Visible Light 10h 16m
Length of Day
9h 08m
Waxing Crescent, 38% of the Moon is Illuminated
Nov 19
Waxing Crescent
Nov 20
First Quarter
Nov 28
Full
Dec 6
Last Quarter
Dec 13
New

Hourly Weather History & Observations

Time (CET) Temp. Windchill Dew Point Humidity Pressure Visibility Wind Dir Wind Speed Gust Speed Precip Events Conditions
1:00 AM 35 °F - 34 °F 95% 30.13 in - NE 2.2 mph - -  
5:15 AM 35.6 °F - 33.8 °F 93% 30.12 in 3.7 mi ENE 2.3 mph - N/A   Scattered Clouds
5:37 AM 35.6 °F - 33.8 °F 93% 30.15 in - NE 2.3 mph - N/A   Scattered Clouds
5:45 AM 35.6 °F - 33.8 °F 93% 30.12 in 2.2 mi NE 2.3 mph - N/A   Mostly Cloudy
6:00 AM - - - N/A% - 2.2 mi ENE 5.8 mph - N/A Fog Fog
6:15 AM 35.6 °F - 33.8 °F 93% 30.12 in - NE 2.3 mph - N/A   Mostly Cloudy
6:39 AM 35.6 °F - 35.6 °F 100% 30.15 in 1.2 mi NNE 2.3 mph - N/A   Mostly Cloudy
6:45 AM 35.6 °F - 35.6 °F 100% 30.12 in 1.2 mi NE 2.3 mph - N/A   Mostly Cloudy
7:00 AM 36 °F - 35 °F 96% 30.15 in 1 mi NE 2.2 mph - -   Mist
7:15 AM 35.6 °F 32.8 °F 35.6 °F 100% 30.12 in 1.2 mi ENE 3.5 mph - N/A   Mostly Cloudy
7:45 AM 37.4 °F - 37.4 °F 100% 30.15 in 1.2 mi East 2.3 mph - N/A   Mostly Cloudy
8:15 AM 39.2 °F 37.0 °F 39.2 °F 100% 30.15 in 1.9 mi NNE 3.5 mph - N/A   Mostly Cloudy
8:45 AM 41.0 °F - 39.2 °F 93% 30.15 in 1.9 mi NE 2.3 mph - N/A   Mostly Cloudy
9:00 AM - - - N/A% - 2.5 mi NNE 5.8 mph - N/A   Mist
9:15 AM 42.8 °F 41.1 °F 39.2 °F 87% 30.15 in 2.2 mi NE 3.5 mph - N/A   Scattered Clouds
9:45 AM 46.4 °F 44.3 °F 41.0 °F 81% 30.15 in 2.2 mi ENE 4.6 mph - N/A   Mostly Cloudy
10:15 AM 46.4 °F 45.2 °F 39.2 °F 76% 30.15 in 4.3 mi ENE 3.5 mph - N/A   Mostly Cloudy
10:45 AM 50.0 °F - 41.0 °F 71% 30.15 in 4.3 mi NNE 2.3 mph - N/A   Mostly Cloudy
11:15 AM 51.8 °F - 41.0 °F 67% 30.12 in 5.0 mi NNE 8.1 mph - N/A   Mostly Cloudy
11:45 AM 53.6 °F - 41.0 °F 62% 30.12 in - NE 8.1 mph - N/A   Clear
12:00 PM - - - N/A% - - NNE 6.9 mph - N/A   Clear
12:15 PM 53.6 °F - 41.0 °F 62% 30.12 in - NE 8.1 mph - N/A   Clear
12:45 PM 53.6 °F - 39.2 °F 58% 30.12 in - NE 9.2 mph - N/A   Clear
1:00 PM 54 °F - 39 °F 47% 30.13 in 9 mi NE 8.9 mph - -   Partly Cloudy
1:15 PM 55.4 °F - 39.2 °F 54% 30.12 in - NNE 8.1 mph - N/A   Clear
1:45 PM 53.6 °F - 39.2 °F 58% 30.12 in - NE 6.9 mph - N/A   Clear
2:15 PM 55.4 °F - 41.0 °F 58% 30.12 in - NNE 6.9 mph - N/A   Clear
2:45 PM 53.6 °F - 41.0 °F 62% 30.12 in - NNE 6.9 mph - N/A   Clear
3:15 PM 51.8 °F - 41.0 °F 67% 30.12 in - NNE 5.8 mph - N/A   Clear
3:45 PM 50.0 °F - 39.2 °F 66% 30.12 in 4.3 mi NNE 4.6 mph - N/A   Mostly Cloudy
4:15 PM 48.2 °F - 39.2 °F 71% 30.15 in 4.3 mi NNE 3.5 mph - N/A   Mostly Cloudy
4:45 PM 48.2 °F - 39.2 °F 71% 30.15 in 3.7 mi NNE 4.6 mph - N/A   Mostly Cloudy
5:00 PM - - - N/A% - - North - - N/A   Unknown
7:00 PM 44 °F - 39 °F 75% 30.17 in - NNE 8.9 mph - -